Change the Weather History Date:

Sunday, May 26, 2013

  Actual Average Record
Temperature  
Mean Temperature 66 °F -  
Max Temperature 79 °F 89 °F 102 °F (2001)
Min Temperature 53 °F 62 °F 53 °F (2013)
Cooling Degree Days 1    
Growing Degree Days 16 (Base 50)    
Moisture  
Dew Point 51 °F    
Average Humidity 60    
Maximum Humidity 88    
Minimum Humidity 26    
Precipitation  
Precipitation 0.00 in 0.01 in - ()
Sea Level Pressure  
Sea Level Pressure 30.04 in    
Wind  
Wind Speed 6 mph ()    
Max Wind Speed 12 mph    
Max Gust Speed -    
Visibility 6.0 miles    
Events      
Averages and records for this station are not official NWS values.
T = Trace of Precipitation, MM = Missing Value Source: Averaged Metar Reports

Daily Weather History Graph

Daily Weather History Graph

Search for Another Location

Airport or City:

Trip Planner

Search our weather history database for the weather conditions in past years. The results will help you decide how hot, cold, wet, or windy it might be!

Date:

Astronomy

May. 26, 2013 Rise Set
Actual Time 6:29 AM WEST 8:28 PM WEST
Civil Twilight 6:02 AM WEST 8:56 PM WEST
Nautical Twilight 5:29 AM WEST 9:29 PM WEST
Astronomical Twilight 4:53 AM WEST 10:05 PM WEST
Moon 10:05 PM WEST (5/26) 7:43 AM WEST (5/26)
Length of Visible Light 14h 53m
Length of Day
13h 59m
Full, 97% of the Moon is Illuminated
May 26
Full
May 31
Last Quarter
Jun 8
New
Jun 16
First Quarter
Jun 23
Full

Hourly Weather History & Observations

Time (WEST) Temp. Dew Point Humidity Pressure Visibility Wind Dir Wind Speed Gust Speed Precip Events Conditions
12:00 AM 64.4 °F 50.0 °F 59% 30.09 in 6.2 mi WNW 5.8 mph - N/A   Partly Cloudy
12:30 AM 62.6 °F 50.0 °F 63% 30.09 in 6.2 mi Variable 2.3 mph - N/A   Partly Cloudy
1:00 AM 60.8 °F 50.0 °F 68% 30.09 in 6.2 mi West 8.1 mph - N/A   Partly Cloudy
1:30 AM 60.8 °F 50.0 °F 68% 30.09 in - WSW 6.9 mph - N/A   Clear
2:00 AM 60.8 °F 50.0 °F 68% 30.06 in - WSW 6.9 mph - N/A   Clear
2:30 AM 59.0 °F 50.0 °F 72% 30.06 in - West 8.1 mph - N/A   Clear
3:00 AM 59.0 °F 50.0 °F 72% 30.06 in - WSW 6.9 mph - N/A   Clear
3:30 AM 57.2 °F 51.8 °F 82% 30.04 in - WSW 9.2 mph - N/A   Clear
4:00 AM 56 °F 51 °F 78% 30.04 in 6 mi WSW 9.2 mph - -  
4:00 AM 55.4 °F 51.8 °F 88% 30.04 in - WSW 9.2 mph - N/A   Clear
4:30 AM 55.4 °F 51.8 °F 88% 30.04 in - WSW 6.9 mph - N/A   Clear
5:00 AM 55.4 °F 51.8 °F 88% 30.04 in - WSW 9.2 mph - N/A   Clear
5:30 AM 55.4 °F 50.0 °F 82% 30.06 in - WSW 8.1 mph - N/A   Clear
6:00 AM 55.4 °F 51.8 °F 88% 30.06 in - WSW 9.2 mph - N/A   Clear
6:30 AM 53.6 °F 50.0 °F 88% 30.06 in - West 9.2 mph - N/A   Clear
7:00 AM 54 °F 51 °F 85% 30.07 in 6 mi WSW 8.1 mph - -  
7:00 AM 53.6 °F 50.0 °F 88% 30.06 in - WSW 8.1 mph - N/A   Clear
7:30 AM 55.4 °F 51.8 °F 88% 30.06 in - WSW 5.8 mph - N/A   Clear
8:00 AM 55.4 °F 51.8 °F 88% 30.06 in - Calm Calm - N/A   Clear
8:30 AM 57.2 °F 51.8 °F 82% 30.06 in - Calm Calm - N/A   Clear
9:00 AM 59.0 °F 51.8 °F 77% 30.06 in 6.2 mi Variable 1.2 mph - N/A   Unknown
9:30 AM 59.0 °F 51.8 °F 77% 30.06 in 6.2 mi Variable 2.3 mph - N/A   Scattered Clouds
10:00 AM 62 °F 52 °F 62% 30.06 in 6 mi West 4.6 mph - -   Partly Cloudy
10:00 AM 60.8 °F 51.8 °F 72% 30.09 in 6.2 mi West 4.6 mph - N/A   Scattered Clouds
10:30 AM 62.6 °F 51.8 °F 68% 30.09 in 6.2 mi WNW 5.8 mph - N/A   Mostly Cloudy
11:00 AM 64.4 °F 51.8 °F 64% 30.06 in 6.2 mi West 6.9 mph - N/A   Mostly Cloudy
11:30 AM 66.2 °F 51.8 °F 60% 30.06 in 6.2 mi WNW 4.6 mph - N/A   Mostly Cloudy
12:00 PM 68.0 °F 51.8 °F 56% 30.06 in 6.2 mi West 5.8 mph - N/A   Mostly Cloudy
12:30 PM 68.0 °F 53.6 °F 60% 30.06 in 6.2 mi WNW 3.5 mph - N/A   Mostly Cloudy
1:00 PM 69 °F 52 °F 45% 30.02 in 6 mi WNW 5.8 mph - -   Mostly Cloudy
1:00 PM 69.8 °F 51.8 °F 53% 30.06 in 6.2 mi West 5.8 mph - N/A   Mostly Cloudy
1:30 PM 71.6 °F 51.8 °F 50% 30.06 in 6.2 mi NNW 3.5 mph - N/A   Scattered Clouds
2:00 PM 71.6 °F 51.8 °F 50% 30.04 in 6.2 mi Variable 4.6 mph - N/A   Scattered Clouds
2:30 PM 73.4 °F 51.8 °F 47% 30.04 in 6.2 mi North 6.9 mph - N/A   Scattered Clouds
3:00 PM 75.2 °F 51.8 °F 44% 30.04 in 6.2 mi Variable 4.6 mph - N/A   Scattered Clouds
3:30 PM 77.0 °F 51.8 °F 41% 30.01 in 6.2 mi Calm Calm - N/A   Scattered Clouds
4:00 PM 77 °F 51 °F 29% 29.94 in 6 mi WNW 5.8 mph - -   Partly Cloudy
4:00 PM 77.0 °F 51.8 °F 41% 30.01 in 6.2 mi Variable 5.8 mph - N/A   Scattered Clouds
4:30 PM 77.0 °F 50.0 °F 39% 30.01 in 6.2 mi West 4.6 mph - N/A   Scattered Clouds
5:00 PM 77.0 °F 50.0 °F 39% 30.01 in 6.2 mi NW 6.9 mph - N/A   Scattered Clouds
5:30 PM 78.8 °F 50.0 °F 36% 29.98 in 5.0 mi NW 5.8 mph - N/A   Scattered Clouds
6:00 PM 78.8 °F 50.0 °F 36% 29.98 in 5.0 mi North 1.2 mph - N/A   Scattered Clouds
6:30 PM 78.8 °F 50.0 °F 36% 29.98 in 5.0 mi NNE 3.5 mph - N/A   Scattered Clouds
6:49 PM 78 °F 49 °F 26% 29.90 in 5 mi NNW 5.8 mph - -   Mostly Cloudy
7:00 PM 77.0 °F 50.0 °F 39% 29.98 in 5.0 mi NNW 5.8 mph - N/A   Mostly Cloudy
7:30 PM 77.0 °F 48.2 °F 36% 29.98 in 5.0 mi West 3.5 mph - N/A   Mostly Cloudy
8:00 PM 77.0 °F 48.2 °F 36% 29.98 in 5.0 mi NNW 6.9 mph - N/A   Mostly Cloudy
8:30 PM 73.4 °F 50.0 °F 44% 29.98 in 6.2 mi NNW 10.4 mph - N/A   Mostly Cloudy
9:00 PM 69.8 °F 48.2 °F 46% 30.01 in 6.2 mi North 10.4 mph - N/A   Mostly Cloudy
9:30 PM 68.0 °F 48.2 °F 49% 30.01 in 6.2 mi NNW 11.5 mph - N/A   Mostly Cloudy
10:00 PM 66 °F 49 °F 44% 29.99 in 6 mi North 11.5 mph - -   Mostly Cloudy
10:00 PM 66.2 °F 50.0 °F 56% 30.01 in 6.2 mi North 11.5 mph - N/A   Mostly Cloudy
10:30 PM 66.2 °F 50.0 °F 56% 30.04 in 6.2 mi North 8.1 mph - N/A   Mostly Cloudy
11:00 PM 64.4 °F 50.0 °F 59% 30.04 in 6.2 mi NNE 5.8 mph - N/A   Mostly Cloudy
11:30 PM 62.6 °F 50.0 °F 63% 30.06 in 6.2 mi Variable 2.3 mph - N/A   Mostly Cloudy